STARLINK-33819, 63494

Orbit data source: Space-Track

STARLINK-33819, 63494 is a payload satellite owned by SpaceX/Seattle (US) in LEO that was launched on Mon, 07 Apr 2025 UTC via an FALCON 9 launch vehicle from the Air Force Western Test Range (AFWTR). Payload-class satellites include a variety of spacecraft equipped with specific instruments for various scientific and technological missions. These include communications satellites like Starlink; space stations such as the ISS; scientific satellites like the Hubble; Earth observation satellites from companies like Planet Labs, Umbra, and HawkEye 360; GPS; miniature CubeSats for education and research; and military/defense satellites.

Loading next visibility...
Identifier
63494, 2025-071B
Orbit
LEO
Last TLE update
12 hours ago
Origin
Manufacturer
SpaceX/Seattle
Mission
Operational Commercial Communications
Bus & Motor
STARLINK V2MO, Unknown motor
Mass
575 kg wet, ~530 kg dry
Launch date (UTC)
2025-04-07 (1 month ago)
Launch vehicle
FALCON 9
Launch site
Air Force Western Test Range (AFWTR)
Object type
Payload
Rocket body
Debris
Shape & HBR
Box + 1 Pan, 29 m
Radar Cross Section
41.120 m², Large (>1 m²)

Expand to show TLE details & history

TLE from 12 hours ago
0 STARLINK-33819
1 63494U 25071B   25128.91668981  .00051721  00000-0  12939-2 0  9999
2 63494  53.1589 120.2411 0001038 126.2077 172.1369 15.39628447  6113
Epoch: 2025-05-08T22:00Z
Definitive object data (Epoch: 2025-05-08T22:00:01.999Z)
Latitude
-44.96865°
Longitude
-124.8424°
Altitude
463.122 km
Speed
7.634 km/s
True Right ascension
04h 48m 35s
True Declination
-44° 47' 21"
Sunlit
Object was in daylight at TLE epoch
Visualization TLE readout
Latitude
53.05909°
Longitude
18.73382°
Altitude
452.981 km
Speed
7.647 km/s
Apparent Right ascension
09h 21m 36s
Apparent Declination
19° 18' 11"
Sunlit
Object is in daylight
Visualization observer readout
Local Sidereal Time
17:44:17
Azimuth
308.356° NW
Elevation
-12.124°
Doppler factor
1
Orbital elements
Apogee altitude
448.173 km
Perigee altitude
446.756 km
Semi-major axis
6,825.602 km
Eccentricity
0.0001038
Inclination
53.1589°
RAAN
120.2411°
Arg. of periapsis
126.2077°
True anomaly
172.13853°
Mean anomaly
172.1369°
Eccentric anomaly
172.13771°
Mean motion
3.84886 °/min
BSTAR
0.0012939
Orbital period
93.53 mins
Loading maneuver chart data...
Loading SW <> Apogee altitude chart data...
Loading historical data...
Loading historical data...
Loading historical data...
Loading historical data...
Loading historical data...
Loading historical data...
Loading historical data...

STARLINK-33819 Visibility forecast

Observer location: undefined°, undefined°

Span
Click to sort rows by Start time (UTC) header in descending order
Start Az.
Max El. time (UTC)
Max El. Az.
Max El.
End time (UTC)
End Az.
5 mins2025-05-09 09:41:56.833Z290.882° WNW2025-05-09 09:44:56.833Z211.956° SW30.431°2025-05-09 09:46:56.833Z165.181° S
5 mins2025-05-10 02:31:56.833Z264.798° W2025-05-10 02:33:56.833Z341.631° N34.534°2025-05-10 02:36:56.833Z39.166° NE
4 mins2025-05-10 07:26:56.833Z348.446° N2025-05-10 07:28:56.833Z35.499° NE20.2°2025-05-10 07:30:56.833Z74.45° E
5 mins2025-05-10 09:03:56.833Z295.801° NW2025-05-10 09:05:56.833Z236.148° WSW39.117°2025-05-10 09:08:56.833Z147.848° SSE
|